EN

Hourly Weather Ahmadpur

Today, 29 November, Sunday

Time Temperature Precipitation Wind Pressure Humidity
00:00 +21°C° 0 mm 2 mps 716 mmHg 81%
01:00 +20°C° 0 mm 2 mps 715 mmHg 83%
02:00 +20°C° 0 mm 2 mps 715 mmHg 85%
03:00 +20°C° 0 mm 2 mps 715 mmHg 86%
04:00 +19°C° 0 mm 2 mps 715 mmHg 87%
05:00 +19°C° 0 mm 2 mps 715 mmHg 89%
06:00 +20°C° 0 mm 2 mps 716 mmHg 84%
07:00 +23°C° 0 mm 2 mps 716 mmHg 80%
08:00 +24°C° 0 mm 2 mps 717 mmHg 75%
09:00 +26°C° 0 mm 3 mps 717 mmHg 69%
10:00 +27°C° 0 mm 3 mps 717 mmHg 62%
11:00 +29°C° 0 mm 3 mps 717 mmHg 55%
12:00 +29°C° 0 mm 3 mps 716 mmHg 54%
13:00 +29°C° 0 mm 3 mps 715 mmHg 54%
14:00 +30°C° 0 mm 3 mps 714 mmHg 54%
15:00 +29°C° 0 mm 3 mps 714 mmHg 56%
16:00 +28°C° 0 mm 2 mps 714 mmHg 59%
17:00 +27°C° 0 mm 2 mps 714 mmHg 65%
18:00 +27°C° 0 mm 2 mps 715 mmHg 67%
19:00 +26°C° 0 mm 2 mps 715 mmHg 68%
20:00 +25°C° 0 mm 2 mps 716 mmHg 70%
21:00 +25°C° 0 mm 2 mps 716 mmHg 71%
22:00 +25°C° 0 mm 2 mps 716 mmHg 71%
23:00 +24°C° 0 mm 2 mps 716 mmHg 71%

Tomorrow, 30 November, Monday

Time Temperature Precipitation Wind Pressure Humidity
00:00 +24°C° 0 mm 2 mps 715 mmHg 74%
01:00 +23°C° 0 mm 2 mps 715 mmHg 76%
02:00 +23°C° 0 mm 2 mps 714 mmHg 78%
03:00 +22°C° 0 mm 1 mps 714 mmHg 80%
04:00 +22°C° 0 mm 1 mps 714 mmHg 81%
05:00 +20°C° 0 mm 0 mps 715 mmHg 83%
06:00 +23°C° 0 mm 1 mps 715 mmHg 78%
07:00 +24°C° 0 mm 1 mps 716 mmHg 74%
08:00 +25°C° 0 mm 2 mps 717 mmHg 69%
09:00 +27°C° 0 mm 2 mps 717 mmHg 62%
10:00 +28°C° 0 mm 3 mps 717 mmHg 55%
11:00 +30°C° 0 mm 3 mps 717 mmHg 48%
12:00 +30°C° 0 mm 3 mps 716 mmHg 47%
13:00 +31°C° 0 mm 3 mps 715 mmHg 45%
14:00 +31°C° 0 mm 2 mps 715 mmHg 44%
15:00 +30°C° 0 mm 2 mps 715 mmHg 46%
16:00 +30°C° 0 mm 2 mps 715 mmHg 49%
17:00 +29°C° 0 mm 2 mps 715 mmHg 51%
18:00 +28°C° 0 mm 2 mps 715 mmHg 52%
19:00 +28°C° 0 mm 2 mps 716 mmHg 54%
20:00 +27°C° 0 mm 2 mps 716 mmHg 55%
21:00 +26°C° 0 mm 2 mps 716 mmHg 57%
22:00 +25°C° 0 mm 2 mps 716 mmHg 59%
23:00 +25°C° 0 mm 3 mps 716 mmHg 61%

Day after tomorrow, 1 December, Tuesday

Time Temperature Precipitation Wind Pressure Humidity
00:00 +24°C° 0 mm 2 mps 716 mmHg 64%
01:00 +23°C° 0 mm 2 mps 715 mmHg 67%
02:00 +23°C° 0 mm 2 mps 715 mmHg 69%
03:00 +21°C° 0 mm 2 mps 715 mmHg 72%
04:00 +22°C° 0 mm 1 mps 715 mmHg 75%
05:00 +22°C° 0 mm 1 mps 714 mmHg 78%
06:00 +23°C° 0 mm 1 mps 715 mmHg 74%
07:00 +24°C° 0 mm 1 mps 716 mmHg 70%
08:00 +25°C° 0 mm 2 mps 717 mmHg 67%
09:00 +27°C° 0 mm 2 mps 717 mmHg 59%
10:00 +28°C° 0 mm 3 mps 717 mmHg 52%
11:00 +30°C° 0 mm 3 mps 717 mmHg 44%
12:00 +30°C° 0 mm 4 mps 716 mmHg 42%
13:00 +32°C° 0 mm 4 mps 715 mmHg 39%
14:00 +32°C° 0 mm 4 mps 715 mmHg 37%
15:00 +30°C° 0 mm 3 mps 714 mmHg 39%
16:00 +29°C° 0 mm 3 mps 714 mmHg 42%
17:00 +28°C° 0 mm 2 mps 714 mmHg 45%
18:00 +27°C° 0 mm 2 mps 714 mmHg 46%
19:00 +25°C° 0 mm 2 mps 715 mmHg 48%
20:00 +24°C° 0 mm 2 mps 715 mmHg 50%
21:00 +23°C° 0 mm 2 mps 715 mmHg 52%
22:00 +23°C° 0 mm 2 mps 715 mmHg 53%
23:00 +21°C° 0 mm 2 mps 715 mmHg 54%

2 December, Wednesday

Time Temperature Precipitation Wind Pressure Humidity
00:00 +21°C° 0 mm 2 mps 715 mmHg 56%
01:00 +20°C° 0 mm 2 mps 715 mmHg 57%
02:00 +20°C° 0 mm 2 mps 714 mmHg 59%
03:00 +21°C° 0 mm 1 mps 714 mmHg 61%
04:00 +20°C° 0 mm 1 mps 714 mmHg 63%
05:00 +20°C° 0 mm 1 mps 714 mmHg 65%
06:00 +21°C° 0 mm 1 mps 715 mmHg 62%
07:00 +22°C° 0 mm 1 mps 716 mmHg 58%
08:00 +24°C° 0 mm 1 mps 717 mmHg 54%
09:00 +25°C° 0 mm 1 mps 716 mmHg 48%
10:00 +27°C° 0 mm 2 mps 716 mmHg 42%
11:00 +29°C° 0 mm 3 mps 716 mmHg 36%
12:00 +30°C° 0 mm 3 mps 715 mmHg 33%
13:00 +30°C° 0 mm 3 mps 715 mmHg 31%
14:00 +31°C° 0 mm 3 mps 714 mmHg 28%
15:00 +30°C° 0 mm 3 mps 714 mmHg 31%
16:00 +28°C° 0 mm 2 mps 713 mmHg 35%
17:00 +27°C° 0 mm 2 mps 713 mmHg 38%
18:00 +26°C° 0 mm 2 mps 714 mmHg 40%
19:00 +25°C° 0 mm 2 mps 714 mmHg 42%
20:00 +23°C° 0 mm 1 mps 715 mmHg 45%
21:00 +23°C° 0 mm 2 mps 715 mmHg 46%
22:00 +21°C° 0 mm 2 mps 714 mmHg 47%
23:00 +21°C° 0 mm 2 mps 714 mmHg 49%

3 December, Thursday

Time Temperature Precipitation Wind Pressure Humidity
00:00 +21°C° 0 mm 1 mps 714 mmHg 50%
01:00 +21°C° 0 mm 1 mps 713 mmHg 51%
02:00 +20°C° 0 mm 1 mps 713 mmHg 52%
03:00 +20°C° 0 mm 1 mps 713 mmHg 53%
04:00 +18°C° 0 mm 0 mps 713 mmHg 55%
05:00 +17°C° 0 mm 0 mps 713 mmHg 56%
06:00 +18°C° 0 mm 0 mps 714 mmHg 53%
07:00 +22°C° 0 mm 1 mps 715 mmHg 51%
08:00 +23°C° 0 mm 1 mps 716 mmHg 48%
09:00 +25°C° 0 mm 2 mps 716 mmHg 42%
10:00 +27°C° 0 mm 2 mps 716 mmHg 37%
11:00 +29°C° 0 mm 3 mps 716 mmHg 31%
12:00 +30°C° 0 mm 3 mps 715 mmHg 29%
13:00 +30°C° 0 mm 3 mps 714 mmHg 27%
14:00 +31°C° 0 mm 3 mps 714 mmHg 25%
15:00 +30°C° 0 mm 2 mps 713 mmHg 29%
16:00 +28°C° 0 mm 2 mps 713 mmHg 33%
17:00 +27°C° 0 mm 2 mps 713 mmHg 37%
18:00 +26°C° 0 mm 2 mps 713 mmHg 38%
19:00 +25°C° 0 mm 2 mps 714 mmHg 40%
20:00 +23°C° 0 mm 1 mps 714 mmHg 42%
21:00 +23°C° 0 mm 1 mps 714 mmHg 45%
22:00 +21°C° 0 mm 2 mps 714 mmHg 47%
23:00 +20°C° 0 mm 2 mps 714 mmHg 50%

4 December, Friday

Time Temperature Precipitation Wind Pressure Humidity
00:00 +20°C° 0 mm 2 mps 713 mmHg 52%
01:00 +19°C° 0 mm 2 mps 713 mmHg 53%
02:00 +19°C° 0 mm 2 mps 713 mmHg 55%
03:00 +19°C° 0 mm 2 mps 713 mmHg 56%
04:00 +18°C° 0 mm 2 mps 713 mmHg 58%
05:00 +19°C° 0 mm 1 mps 713 mmHg 60%
06:00 +21°C° 0 mm 1 mps 713 mmHg 56%
07:00 +22°C° 0 mm 1 mps 714 mmHg 53%
08:00 +23°C° 0 mm 1 mps 715 mmHg 50%
09:00 +25°C° 0 mm 2 mps 715 mmHg 44%
10:00 +27°C° 0 mm 3 mps 715 mmHg 38%
11:00 +29°C° 0 mm 3 mps 716 mmHg 32%
12:00 +30°C° 0 mm 3 mps 715 mmHg 30%
13:00 +31°C° 0 mm 3 mps 714 mmHg 28%
14:00 +31°C° 0 mm 3 mps 713 mmHg 26%
15:00 +30°C° 0 mm 3 mps 713 mmHg 29%
16:00 +28°C° 0 mm 2 mps 713 mmHg 33%
17:00 +27°C° 0 mm 2 mps 713 mmHg 36%
18:00 +26°C° 0 mm 2 mps 713 mmHg 38%
19:00 +25°C° 0 mm 2 mps 714 mmHg 40%
20:00 +24°C° 0 mm 2 mps 714 mmHg 42%
21:00 +23°C° 0 mm 2 mps 714 mmHg 44%
22:00 +21°C° 0 mm 2 mps 714 mmHg 46%
23:00 +21°C° 0 mm 2 mps 714 mmHg 48%
Show more

We Need Your Consent

Meteoprog and our Service Providers may store and access personal data such as cookies, device identifiers or other similar technologies on your device and process such data to personalise content and ads, as well as provide social media features and to analyse the traffic.

  • Store and/or access information on your device

    Cookies, device identifiers or other information can be stored or accessed on your device for the purposes indicated above.

  • Personalised ads and content, ad and content measurement, audience insights, and products development

    Ads and content can be personalised based on a profile. More data can be added to better personalise ads and content. Ad and content performance can be measured. Insights about the audience who saw the ads and content can be derived. Such data can be used to develop or improve user’s experience, systems and software.

By clicking ‘I Agree’ you will allow the use of indicated cookies, device identifiers, web beacons or other similar technologies. Your settings can be changed in the browser on your device.

For certain purposes, legitimate interests may be relied on, rather than consent. You can read more about this in our Privacy and Cookie Policy.